[[{"header":{"parameterUnit":"m.s-1","parameterCategory":1,"la1":30.2991,"la2":30.254,"lo1":-89.0895,"lo2":-89.0444,"dy":0.0017,"dx":0.0017,"nx":28,"ny":28,"refTime":"2023-10-23T21:00:00:Z","depth":0,"parameterNumber":2,"parameterNumberName":"U-component_of_WINDS"},"data":[0,0,0,0,0,0,0,0,0,0,0,0,0,0,0,0,0,0,0,0,0,0,0,0,0,0,0,0,0,0,0,0,0,0,0,0,0,0,0,0,0,0,0,0,0,0,0,0,0,0,0,0,0,0,0,0,0,0,-5.5429,-5.5431,0,-5.5664,-5.5666,-5.5669,-5.5657,-5.5654,-5.565,-5.5647,-5.5894,-5.5903,-5.5913,0,0,0,0,0,0,0,0,0,0,0,0,0,-5.4977,-5.4985,-5.5428,-5.5431,-5.5434,-5.5663,-5.5666,-5.567,-5.5658,-5.5654,-5.565,-5.5646,-5.589,-5.5902,-5.5914,0,0,0,0,0,0,0,0,0,0,0,0,0,-5.5189,-5.4988,-5.5428,-5.5456,-5.5461,-5.5662,-5.5666,-5.567,-5.5659,-5.5654,-5.5648,-5.5644,-5.5887,-5.5901,-5.5915,-5.6106,0,0,-5.596,-5.5966,0,0,0,0,0,0,0,0,-5.5176,-5.5205,-5.5449,-5.5454,-5.546,-5.5626,-5.5597,-5.5817,-5.566,-5.5584,-5.5647,-5.5641,-5.5809,-5.583,-5.5885,-5.6118,-5.6128,-5.5961,-5.597,-5.5976,-5.598,0,0,0,0,0,0,0,-5.5162,-5.5195,-5.5521,-5.5452,-5.5459,-5.5459,-5.5484,-5.5639,-5.5722,-5.559,-5.559,-5.5617,-5.5811,-5.5871,-5.5891,-5.6132,-5.5961,-5.5973,-5.5982,-5.5988,-5.6538,-5.6543,0,0,0,0,0,0,-5.514,-5.5183,-5.5514,-5.5529,-5.5303,-5.5471,-5.5499,-5.5578,-5.572,-5.5737,-5.5621,-5.5616,-5.5849,-5.5874,-5.5899,-5.6135,-5.5976,-5.599,-5.5998,-5.6532,-5.6539,-5.6546,0,0,0,0,0,0,-5.513,-5.517,-5.5505,-5.5356,-5.5398,-5.5484,-5.5573,-5.5585,-5.5645,-5.5744,-5.5759,-5.5667,-5.5846,-5.5879,-5.6055,-5.6143,-5.5996,-5.6009,-5.6525,-5.6534,-5.6542,-5.6605,0,0,0,0,0,0,-5.5118,-5.5166,-5.5238,-5.5357,-5.5406,-5.5654,-5.5579,-5.5593,-5.5669,-5.5664,-5.5791,-5.5807,-5.5844,-5.6034,-5.607,-5.616,-5.6021,-5.6518,-5.6529,-5.654,-5.6596,-5.6615,-5.6632,0,0,0,0,0,-5.5101,-5.5246,-5.5241,-5.5281,-5.5497,-5.5659,-5.5688,-5.5726,-5.5676,-5.575,-5.5815,-5.5803,-5.6128,-5.6052,-5.6093,-5.6189,-5.6512,-5.6526,-5.6539,-5.6588,-5.6611,-5.6631,0,0,0,0,0,0,-5.5136,-5.5262,-5.5258,-5.5446,-5.5542,-5.5657,-5.5751,-5.5749,-5.5863,-5.5853,-5.5898,-5.5927,-5.6105,-5.6165,-5.6078,-5.6383,-5.6314,-5.6336,-5.6337,-5.6361,-5.6378,-5.636,-5.6033,0,0,0,0,0,-5.5165,-5.5284,-5.5389,-5.5545,-5.5593,-5.5664,-5.5736,-5.5758,-5.586,-5.5901,-5.5978,-5.6079,-5.6204,-5.6286,-5.6406,-5.6605,-5.6634,-5.6691,-5.6709,-5.6723,-5.6742,-5.6855,-5.6882,-5.6589,-5.6589,-5.6589,0,0,-5.5227,-5.5311,-5.5383,-5.5554,-5.5631,-5.5756,-5.5698,-5.5832,-5.5926,-5.5922,-5.6093,-5.6154,-5.627,-5.6459,-5.6546,-5.6514,-5.683,-5.674,-5.6751,-5.6762,-5.6871,-5.6899,-5.6923,-5.6598,-5.6596,-5.6595,0,0,-5.5403,-5.5478,-5.5617,-5.5695,-5.5812,-5.5859,-5.5893,-5.6009,-5.6049,-5.6222,-5.6222,-5.6336,-5.655,-5.6633,-5.6704,-5.6917,-5.6911,-5.6955,-5.7049,-5.7158,-5.7181,-5.7202,-5.728,-5.7307,-5.6973,-5.6973,-5.6974,0,-5.5466,-5.5651,-5.5689,-5.5824,-5.5901,-5.5902,-5.6045,-5.612,-5.6271,-5.6325,-5.6287,-5.6558,-5.6636,-5.6846,-5.6898,-5.6955,-5.6997,-5.694,-5.7174,-5.7196,-5.7216,-5.729,-5.7319,-5.6978,-5.6978,-5.6977,-5.6977,0,-5.5724,-5.5853,-5.5952,-5.6097,-5.6185,-5.6323,-5.6384,-5.6469,-5.6484,-5.6536,-5.6714,-5.6809,-5.695,-5.7001,-5.7017,-5.7216,-5.7192,-5.7164,-5.7095,-5.7248,-5.7319,-5.7347,-5.6985,-5.6983,-5.6982,-5.6981,0,0,-5.5926,-5.6092,-5.6127,-5.6194,-5.6325,-5.6428,-5.6568,-5.6705,-5.6778,-5.6884,-5.7004,-5.7187,-5.7163,-5.7243,-5.727,-5.7365,-5.7531,-5.7326,-5.733,-5.7362,-5.7758,-5.7778,-5.781,-5.7528,-5.7534,-5.7538,-5.7748,0,-5.6116,-5.6363,-5.6402,-5.662,-5.6742,-5.6747,-5.687,-5.6965,-5.7019,-5.7132,-5.7192,-5.7321,-5.7278,-5.7327,-5.7423,-5.749,-5.7611,-5.7476,-5.7644,-5.7649,-5.7614,-5.7847,-5.7868,-5.8062,-5.7776,-5.7781,-5.7784,0,-5.6371,-5.6482,-5.6712,-5.6829,-5.6882,-5.6991,-5.7121,-5.7229,-5.7339,-5.7372,-5.7463,-5.7479,-5.7629,-5.7554,-5.7762,-5.767,-5.7741,-5.7786,-5.7794,-5.7811,-5.7725,-5.7871,-5.8124,-5.8153,-5.7828,-5.7825,-5.7822,0,-5.6497,-5.6705,-5.6869,-5.6927,-5.7067,-5.7145,-5.7207,-5.7312,-5.7393,-5.7508,-5.7562,-5.7693,-5.7766,-5.7869,-5.7922,-5.7862,-5.8128,-5.8057,-5.8161,-5.816,-5.8216,-5.8212,-5.8484,-5.8262,-5.8261,-5.8261,-5.826,0,-5.6705,-5.6846,-5.6928,-5.7029,-5.7189,-5.7235,-5.7392,-5.7453,-5.7547,-5.7663,-5.7677,-5.7786,-5.7848,-5.7968,-5.801,-5.8178,-5.821,-5.8243,-5.8252,-5.8242,-5.8238,-5.8289,-5.8277,-5.8269,-5.8267,-5.8265,-5.8264,0,-5.6872,-5.6932,-5.7113,-5.7232,-5.7265,-5.7377,-5.7481,-5.7581,-5.7635,-5.7782,-5.7819,-5.7905,-5.8047,-5.811,-5.8284,-5.8313,-5.8505,-5.8505,-5.8467,-5.8471,-5.8572,-5.8562,-5.8887,-5.8933,-5.8679,-5.8682,-5.8684,0,-5.7,-5.7109,-5.724,-5.7318,-5.7382,-5.7508,-5.759,-5.7642,-5.7728,-5.7864,-5.7949,-5.809,-5.8206,-5.8433,-5.8512,-5.8647,-5.8651,-5.8756,-5.8671,-5.8658,-5.8654,-5.8647,-5.8659,-5.8771,-5.8774,-5.8776,-5.8777,0,-5.7223,-5.7249,-5.7366,-5.7496,-5.7594,-5.7699,-5.7802,-5.7865,-5.7934,-5.803,-5.8174,-5.8264,-5.8444,-5.8585,-5.8726,-5.8794,-5.8799,-5.8804,-5.8835,-5.8825,-5.8799,-5.8816,-5.851,-5.8796,-5.8794,-5.8792,-5.8791,-5.8791,-5.7376,-5.7473,-5.7581,-5.7713,-5.7796,-5.7892,-5.7993,-5.806,-5.8181,-5.8329,-5.8353,-5.8508,-5.862,-5.8809,-5.8883,-5.9007,-5.8981,-5.9026,-5.9038,-5.9048,-5.9055,-5.8779,-5.9032,-5.9032,-5.9032,-5.9031,-5.9031,0,-5.76,-5.767,-5.7791,-5.7934,-5.8039,-5.8033,-5.8148,-5.8236,-5.8371,-5.8475,-5.8589,-5.8757,-5.8895,-5.8987,-5.9128,-5.921,-5.9216,-5.9245,-5.9239,-5.9256,-5.9069,-5.9028,-5.9238,-5.9238,-5.9238,-5.9238,-5.9238,-5.9238,-5.7728,-5.7894,-5.7933,-5.8141,-5.8211,-5.8361,-5.8427,-5.8518,-5.8601,-5.8787,-5.8901,-5.896,-5.906,-5.9209,-5.9337,-5.9361,-5.9413,-5.9443,-5.9466,-5.929,-5.9268,-5.9248,-5.9209,-5.9454,-5.9454,-5.9643,-5.9644,-5.9646]},{"header":{"parameterUnit":"m.s-1","parameterCategory":1,"la1":30.2991,"la2":30.254,"lo1":-89.0895,"lo2":-89.0444,"dy":0.0017,"dx":0.0017,"nx":28,"ny":28,"refTime":"2023-10-23T21:00:00:Z","depth":0,"parameterNumber":3,"parameterNumberName":"V-component_of_WINDS"},"data":[0,0,0,0,0,0,0,0,0,0,0,0,0,0,0,0,0,0,0,0,0,0,0,0,0,0,0,0,0,0,0,0,0,0,0,0,0,0,0,0,0,0,0,0,0,0,0,0,0,0,0,0,0,0,0,0,0,0,0.2616,0.2616,0,0.264,0.264,0.264,0.2629,0.2628,0.2627,0.2627,0.2655,0.2656,0.2657,0,0,0,0,0,0,0,0,0,0,0,0,0,0.2565,0.2566,0.2616,0.2616,0.2616,0.264,0.264,0.264,0.2629,0.2628,0.2627,0.2626,0.2654,0.2656,0.2657,0,0,0,0,0,0,0,0,0,0,0,0,0,0.2588,0.2567,0.2616,0.2613,0.2613,0.2639,0.264,0.264,0.2629,0.2628,0.2627,0.2626,0.2654,0.2656,0.2658,0.2689,0,0,0.2664,0.2665,0,0,0,0,0,0,0,0,0.2587,0.259,0.2613,0.2614,0.2614,0.263,0.2632,0.2657,0.2629,0.2623,0.2627,0.2626,0.2648,0.265,0.2657,0.269,0.2691,0.2664,0.2665,0.2666,0.2667,0,0,0,0,0,0,0,0.2585,0.2589,0.2625,0.2614,0.2614,0.2613,0.2615,0.2637,0.264,0.2624,0.2623,0.2626,0.2647,0.2655,0.2657,0.2692,0.2664,0.2666,0.2667,0.2668,0.2756,0.2757,0,0,0,0,0,0,0.2583,0.2588,0.2625,0.2626,0.2598,0.2614,0.2617,0.2626,0.264,0.2641,0.2626,0.2625,0.2652,0.2655,0.2658,0.2698,0.2666,0.2668,0.2669,0.2755,0.2756,0.2757,0,0,0,0,0,0,0.2582,0.2587,0.2624,0.2607,0.2611,0.2616,0.2626,0.2627,0.2634,0.2642,0.2643,0.2633,0.2651,0.2655,0.2682,0.2699,0.2669,0.2671,0.2753,0.2755,0.2757,0.2777,0,0,0,0,0,0,0.2581,0.2586,0.2597,0.2607,0.2612,0.2645,0.2627,0.2628,0.2637,0.2635,0.2649,0.265,0.2651,0.2679,0.2684,0.2701,0.2672,0.2752,0.2754,0.2756,0.2775,0.2779,0.2783,0,0,0,0,0,0.2579,0.2602,0.2597,0.2602,0.2625,0.2646,0.2649,0.2649,0.2638,0.265,0.2656,0.2649,0.2696,0.2682,0.2687,0.2705,0.2751,0.2753,0.2756,0.2773,0.2778,0.2783,0,0,0,0,0,0,0.2594,0.2603,0.2598,0.2624,0.2635,0.2644,0.2659,0.2654,0.2668,0.2667,0.2666,0.267,0.2698,0.2704,0.2688,0.2738,0.2722,0.2726,0.2733,0.2738,0.2742,0.2741,0.2674,0,0,0,0,0,0.26,0.2615,0.2622,0.2645,0.265,0.2654,0.2663,0.2662,0.2673,0.2677,0.2685,0.2697,0.2715,0.2727,0.2743,0.2775,0.278,0.2791,0.2795,0.2798,0.2802,0.2824,0.283,0.2766,0.2766,0.2766,0,0,0.2613,0.262,0.263,0.2648,0.2656,0.2674,0.2657,0.2676,0.269,0.2681,0.2707,0.2713,0.2727,0.2757,0.2771,0.2763,0.2821,0.2801,0.2804,0.2806,0.2827,0.2833,0.2838,0.2768,0.2767,0.2767,0,0,0.2647,0.2652,0.2673,0.2682,0.2693,0.2696,0.2701,0.2712,0.2715,0.2741,0.2736,0.2753,0.2782,0.2794,0.2803,0.2843,0.284,0.2849,0.2871,0.2892,0.2897,0.2901,0.2919,0.2925,0.2852,0.2852,0.2852,0,0.2663,0.2687,0.2685,0.2705,0.2714,0.2706,0.2729,0.2737,0.2755,0.2763,0.2753,0.2792,0.2801,0.2835,0.2845,0.2852,0.2861,0.2848,0.2896,0.29,0.2905,0.2922,0.2928,0.2854,0.2853,0.2853,0.2853,0,0.2708,0.2725,0.2741,0.2757,0.2769,0.279,0.2792,0.2804,0.2803,0.2807,0.2836,0.2846,0.2866,0.2873,0.2871,0.2909,0.2904,0.2895,0.288,0.2912,0.2928,0.2935,0.2855,0.2855,0.2855,0.2854,0,0,0.2752,0.2767,0.2774,0.2782,0.2796,0.281,0.2832,0.2851,0.2863,0.2875,0.2896,0.2922,0.2915,0.2926,0.2926,0.2943,0.298,0.2933,0.2933,0.2944,0.3026,0.3035,0.3042,0.2976,0.2977,0.2978,0.3026,0,0.2789,0.2826,0.2825,0.2861,0.2879,0.2872,0.2892,0.2904,0.2908,0.2926,0.2932,0.2952,0.2939,0.2946,0.2963,0.2971,0.2996,0.2967,0.2999,0.3,0.2998,0.305,0.3058,0.3103,0.3032,0.3033,0.3033,0,0.2837,0.2851,0.2888,0.2902,0.2909,0.2927,0.2946,0.2961,0.2976,0.2978,0.2992,0.2989,0.3015,0.2997,0.3034,0.3014,0.3027,0.3033,0.3035,0.304,0.302,0.3059,0.3116,0.3125,0.3043,0.3042,0.3041,0,0.2869,0.2897,0.2924,0.2932,0.2947,0.296,0.2967,0.298,0.2993,0.301,0.3019,0.3038,0.305,0.3067,0.3071,0.3057,0.311,0.3091,0.3116,0.3116,0.3129,0.3128,0.3192,0.3132,0.3132,0.3132,0.3131,0,0.2912,0.2936,0.294,0.2956,0.2984,0.2984,0.3012,0.3018,0.3031,0.3051,0.3046,0.3065,0.3068,0.3089,0.3093,0.3125,0.313,0.3135,0.3136,0.3137,0.3137,0.3147,0.3146,0.3133,0.3133,0.3133,0.3132,0,0.2954,0.2956,0.2986,0.2998,0.3002,0.3022,0.3034,0.3052,0.3056,0.3082,0.3088,0.3096,0.3121,0.3127,0.3156,0.3158,0.3198,0.3195,0.3193,0.3194,0.322,0.3219,0.3295,0.3306,0.3235,0.3236,0.3237,0,0.2982,0.3001,0.3015,0.3028,0.3036,0.3056,0.3069,0.307,0.3084,0.3103,0.3119,0.3143,0.3162,0.3203,0.3213,0.3236,0.3236,0.3261,0.3239,0.3241,0.3241,0.3241,0.3244,0.3266,0.3266,0.3267,0.3267,0,0.3034,0.3035,0.3052,0.3072,0.3087,0.3102,0.3117,0.3128,0.3132,0.3148,0.3173,0.3188,0.3219,0.3244,0.3268,0.3278,0.3275,0.3274,0.3282,0.3284,0.3284,0.3288,0.3208,0.3273,0.3272,0.3272,0.3272,0.3271,0.3072,0.309,0.3103,0.3124,0.3135,0.315,0.3168,0.3175,0.3195,0.3219,0.3219,0.3247,0.3265,0.3296,0.3308,0.3332,0.3325,0.3335,0.3338,0.3341,0.3346,0.3278,0.3336,0.3336,0.3336,0.3336,0.3336,0,0.3127,0.3135,0.3154,0.3175,0.3193,0.3186,0.3203,0.3219,0.3243,0.3258,0.3278,0.3308,0.3334,0.3346,0.3372,0.3389,0.3389,0.3396,0.3397,0.34,0.3349,0.3341,0.3396,0.3396,0.3396,0.3396,0.3396,0.3396,0.3157,0.3187,0.319,0.3227,0.3236,0.3262,0.3273,0.3288,0.33,0.3334,0.3355,0.3362,0.3378,0.3405,0.343,0.3433,0.3444,0.3453,0.3457,0.3409,0.3403,0.3397,0.339,0.3455,0.3455,0.3506,0.3507,0.3507]}]]